Hyundai No.107 — A8CT4 — position and weather

sailwx.info

Track history (hours):
 
Tides and Currents Weather Stations Pressure Air Temp Water Temp Dewpoint Dewpoint Depression Visibility Wind Speed Wind Dir Waves Ship Positions

Hyundai No.107

Last reported at 2014-Oct-24 23:33 UTC. Time now 2014-Oct-25 00:02 UTC.
Position N 33°37' E 130°24'.

Length 184 m; draft 7.5 m.

Type: Cargo ship. MMSI: 636011980.

Date/timePositionNaut miles runAvg speedWind from/ knotsBaromVisibWave heightAir tempDewpointWater temp
2014-Oct-24 23:33N 33°37' E 130°24'0 0.0
2014-Oct-24 22:32N 33°37' E 130°24'0 0.0
2014-Oct-24 21:33N 33°37' E 130°24'6 5.6
2014-Oct-24 20:33N 33°39' E 130°18'1 1.3
2014-Oct-24 19:33N 33°39' E 130°16'0 0.0
2014-Oct-24 18:30N 33°39' E 130°16'0 0.0
2014-Oct-24 17:33N 33°39' E 130°16'0 0.0
2014-Oct-24 16:33N 33°39' E 130°16'0 0.0
2014-Oct-24 15:30N 33°39' E 130°16'0 0.0
2014-Oct-24 14:31N 33°39' E 130°16'0 0.0
2014-Oct-24 13:31N 33°39' E 130°16'0 0.0
2014-Oct-24 12:33N 33°39' E 130°16'0 0.0
2014-Oct-24 11:26N 33°39' E 130°16'0 0.0
2014-Oct-24 10:31N 33°39' E 130°16'0 0.0
2014-Oct-24 09:32N 33°39' E 130°16'0 0.0
2014-Oct-24 08:33N 33°39' E 130°16'0 0.0
2014-Oct-24 07:33N 33°39' E 130°16'0 0.0
2014-Oct-24 06:33N 33°39' E 130°16'0 0.0
2014-Oct-24 05:30N 33°39' E 130°16'0 0.0
2014-Oct-24 04:33N 33°39' E 130°16'0 0.0
2014-Oct-24 03:32N 33°39' E 130°16'0 0.1
2014-Oct-24 02:31N 33°39' E 130°16'0 0.0
2014-Oct-24 01:30N 33°39' E 130°16'0 0.1
2014-Oct-24 00:32N 33°39' E 130°16'8 8.1
2014-Oct-23 23:33N 33°45' E 130°10'  
2014-Oct-18 12:03N 34°27' E 125°57'0 0.0
2014-Oct-18 11:27N 34°27' E 125°57'  
Track history (hours):
 
Tides and Currents Weather Stations Pressure Air Temp Water Temp Dewpoint Dewpoint Depression Visibility Wind Speed Wind Dir Waves Ship Positions

Hyundai No.107

Last reported at 2014-Oct-24 23:33 UTC. Time now 2014-Oct-25 00:02 UTC.
Position N 33°37' E 130°24'.

Length 184 m; draft 7.5 m.

Type: Cargo ship. MMSI: 636011980.

Date/timePositionNaut miles runAvg speedWind from/ knotsBaromVisibWave heightAir tempDewpointWater temp
2014-Oct-24 23:33N 33°37' E 130°24'0 0.0
2014-Oct-24 22:32N 33°37' E 130°24'0 0.0
2014-Oct-24 21:33N 33°37' E 130°24'6 5.6
2014-Oct-24 20:33N 33°39' E 130°18'1 1.3
2014-Oct-24 19:33N 33°39' E 130°16'0 0.0
2014-Oct-24 18:30N 33°39' E 130°16'0 0.0
2014-Oct-24 17:33N 33°39' E 130°16'0 0.0
2014-Oct-24 16:33N 33°39' E 130°16'0 0.0
2014-Oct-24 15:30N 33°39' E 130°16'0 0.0
2014-Oct-24 14:31N 33°39' E 130°16'0 0.0
2014-Oct-24 13:31N 33°39' E 130°16'0 0.0
2014-Oct-24 12:33N 33°39' E 130°16'0 0.0
2014-Oct-24 11:26N 33°39' E 130°16'0 0.0
2014-Oct-24 10:31N 33°39' E 130°16'0 0.0
2014-Oct-24 09:32N 33°39' E 130°16'0 0.0
2014-Oct-24 08:33N 33°39' E 130°16'0 0.0
2014-Oct-24 07:33N 33°39' E 130°16'0 0.0
2014-Oct-24 06:33N 33°39' E 130°16'0 0.0
2014-Oct-24 05:30N 33°39' E 130°16'0 0.0
2014-Oct-24 04:33N 33°39' E 130°16'0 0.0
2014-Oct-24 03:32N 33°39' E 130°16'0 0.1
2014-Oct-24 02:31N 33°39' E 130°16'0 0.0
2014-Oct-24 01:30N 33°39' E 130°16'0 0.1
2014-Oct-24 00:32N 33°39' E 130°16'8 8.1
2014-Oct-23 23:33N 33°45' E 130°10'  
2014-Oct-18 12:03N 34°27' E 125°57'0 0.0
2014-Oct-18 11:27N 34°27' E 125°57'  

Dump ship's entire track history